Location: Terra Rouge Observatory
(46.0000°N, 62.7500°W)
Time: 00:38:30
(UTC-04:00)

NOSS 3-1 (A) - Visible Passes

Search period start: 13 February 2016 00:00
Search period end: 23 February 2016 00:00
Orbit: 861 x 1352 km, 63.4° (Epoch: 20 January)

Date Brightness Start Highest point End Pass type
(mag) Time Alt. Az. Time Alt. Az. Time Alt. Az.
13 Feb 5.5 04:45:43 10° SSE 04:50:23 25° ESE 04:55:26 10° ENE visible
13 Feb 3.5 06:34:36 10° SW 06:40:37 69° NW 06:47:21 10° NE visible
14 Feb 6.0 04:03:06 10° SE 04:06:13 15° ESE 04:09:27 10° ENE visible
14 Feb 3.6 05:49:54 10° SSW 05:55:52 82° SE 06:02:34 10° NE visible
15 Feb 4.1 05:05:33 10° SSW 05:11:18 53° ESE 05:17:40 10° NE visible
16 Feb 4.9 04:23:07 17° SSE 04:26:53 33° ESE 04:32:35 10° NE visible
16 Feb 3.7 06:11:30 10° WSW 06:17:26 55° NW 06:24:07 10° NE visible
17 Feb 5.4 03:40:38 17° SE 03:42:37 20° ESE 03:47:06 10° ENE visible
17 Feb 3.4 05:28:08 19° SW 05:32:36 79° NW 05:39:21 10° NE visible
18 Feb 6.0 02:57:58 11° ESE 02:58:29 11° ESE 03:00:22 10° E visible
18 Feb 3.6 04:45:27 37° SSW 04:47:56 70° ESE 04:54:33 10° NE visible
18 Feb 4.4 06:33:50 10° W 06:39:25 33° NNW 06:45:38 10° NNE visible
19 Feb 4.2 04:02:38 42° SE 04:03:25 44° ESE 04:09:35 10° NE visible
19 Feb 3.9 05:50:07 19° WSW 05:54:20 45° NW 06:00:52 10° NNE visible
20 Feb 5.1 03:19:43 27° E 03:19:43 27° E 03:24:22 10° NE visible
20 Feb 3.5 05:07:12 40° WSW 05:09:23 63° NW 05:16:08 10° NE visible
21 Feb 5.9 02:36:43 15° E 02:36:43 15° E 02:38:37 10° ENE visible
21 Feb 3.3 04:24:11 79° SSW 04:24:37 89° SE 04:31:21 10° NE visible
21 Feb 4.6 06:11:39 12° W 06:16:28 29° NNW 06:22:24 10° NNE visible
22 Feb 4.1 03:41:06 51° E 03:41:06 51° E 03:46:29 10° NE visible
22 Feb 4.2 05:28:33 26° W 05:31:17 37° NW 05:37:38 10° NNE visible
